Regional Weather Roundup
Issued by NWS

Home | Current Version | Previous Version | Text Only | Print | Product List | Glossary On
Versions: 1 2 3 4 5 6 7 8 9 10 11 12 13 14 15 16 17 18 19 20 21 22 23 24 25 26 27 28 29 30 31 32 33 34 35 36 37 38 39 40 41 42 43 44 45 46 47 48 49 50
000
ASUS43 KLSX 220310
RWRMO

WEATHER SUMMARY FOR MISSOURI
NATIONAL WEATHER SERVICE SPRINGFIELD MO
1000 PM CDT FRI JUL 21 2017

NOTE: "FAIR" INDICATES FEW OR NO CLOUDS BELOW 12,000 FEET WITH NO
       SIGNIFICANT WEATHER AND/OR OBSTRUCTIONS TO VISIBILITY.
       CURRENT SKY AND/OR WEATHER CONDITIONS ARE NOT AVAILABLE FOR
       CHILLICOTHE AND FARMINGTON.

MOZ001>031-035>038-043-044-053-054-220400-
...NORTHERN AND WESTERN MISSOURI...

CITY           SKY/WX    TMP DP  RH WIND       PRES   REMARKS
KANSAS CTY INT PTCLDY    87  74  64 S16       29.83R HX  95
KANSAS C DTWN  CLEAR     90  74  59 S16G24    29.82R HX  99
LEE`S SUMMIT   CLEAR     89  74  60 S14G24    29.85R HX  98
ST JOSEPH      CLEAR     87  75  67 S12       29.79R HX  96
CHILLICOTHE      N/A     87  76  69 S8        29.83R HX  97
KIRKSVILLE     CLEAR     84  74  71 S9        29.84R HX  91

$$
MOZ066>068-077>081-088>096-101>105-220400-
...SOUTHWEST MISSOURI...

CITY           SKY/WX    TMP DP  RH WIND       PRES   REMARKS
SPRINGFIELD    CLEAR     82  71  69 S9        29.95R
JOPLIN         CLEAR     86  72  62 S10       29.93R HX  92
BRANSON        CLEAR     82  72  69 S3        30.00R

$$
MOZ032>034-039>042-045>050-055>058-069>072-220400-
...CENTRAL MISSOURI...

CITY           SKY/WX    TMP DP  RH WIND       PRES   REMARKS
COLUMBIA       CLEAR     83  70  64 SW9       29.89R
JEFFERSON CITY CLEAR     89  71  55 S5        29.87R HX  95
ROLLA          PTCLDY    83  71  67 S9        29.93R
SEDALIA        CLEAR     85  72  65 S9        29.89R HX  91
WHITEMAN AFB   CLEAR     84  72  67 S12       29.86R
WARRENSBURG    CLEAR     82  70  65 S8        29.86R
OSAGE BEACH    CLEAR     87  69  54 SW6       29.92R HX  91

$$
MOZ051-052-059>065-220400-
...EAST CENTRAL MISSOURI...

CITY           SKY/WX    TMP DP  RH WIND       PRES   REMARKS
ST LOUIS INTL  PTCLDY    95  70  44 S10       29.88S HX 101
SPIRIT OF STL  CLEAR     89  73  59 S7        29.86S HX  97
ST CHARLES     CLEAR     83  77  82 NE3       29.86R HX  92

$$
MOZ072>076-082>087-097>100-106>115-220400-
...SOUTH CENTRAL AND SOUTHEAST MISSOURI...

CITY           SKY/WX    TMP DP  RH WIND       PRES   REMARKS
CAPE GIRARDEAU CLEAR     83  76  79 S7        29.94R HX  91
FARMINGTON     CLEAR     84  75  74 S6        29.96S HX  92
POPLAR BLUFF   CLEAR     84  79  85 CALM      29.94R HX  96
WEST PLAINS    CLEAR     85  72  65 S6        30.00R HX  91

$$




USA.gov is the U.S. government's official web portal to all federal, state and local government web resources and services.